| time (UTC) | temp C | wind direction | speed KPH | gust KPH | rain 1hr cm | rain 24hr cm | rain mn cm | humidity % | barometer mb |
| 20260904204905 | 27 | 151 | 1.6 | 4.8 | 0.00 | 0.03 | 0.03 | 37 | 1005.1 |
| 20260904200405 | 26 | 27 | 3.2 | 11.3 | 0.00 | 0.03 | 0.03 | 40 | 1006.0 |
| 20260904195405 | 27 | 113 | 3.2 | 8.0 | 0.00 | 0.03 | 0.03 | 41 | 1006.2 |
| 20260904194405 | 26 | 57 | 1.6 | 11.3 | 0.00 | 0.03 | 0.03 | 43 | 1006.4 |
| 20260904193905 | 26 | 291 | 4.8 | 11.3 | 0.00 | 0.03 | 0.03 | 43 | 1006.5 |
| 20260904193405 | 26 | 131 | 4.8 | 8.0 | 0.00 | 0.03 | 0.03 | 42 | 1006.5 |
| 20260904192405 | 26 | 191 | 3.2 | 8.0 | 0.00 | 0.03 | 0.03 | 45 | 1006.6 |
| 20260904191405 | 25 | 289 | 3.2 | 4.8 | 0.00 | 0.03 | 0.03 | 45 | 1006.8 |
| 20260904190905 | 25 | 281 | 3.2 | 4.8 | 0.00 | 0.03 | 0.03 | 43 | 1006.9 |
| 20260904185905 | 25 | 134 | 1.6 | 11.3 | 0.00 | 0.03 | 0.03 | 44 | 1007.1 |
| 20260904185405 | 25 | 134 | 4.8 | 11.3 | 0.00 | 0.03 | 0.03 | 43 | 1007.2 |
| 20260904184405 | 25 | 306 | 1.6 | 4.8 | 0.00 | 0.03 | 0.03 | 45 | 1007.3 |
| 20260904183905 | 25 | 245 | 1.6 | 4.8 | 0.00 | 0.03 | 0.03 | 47 | 1007.3 |
| 20260904182405 | 24 | 200 | 1.6 | 4.8 | 0.00 | 0.03 | 0.03 | 46 | 1007.4 |
| 20260904181405 | 24 | 298 | 1.6 | 4.8 | 0.00 | 0.03 | 0.03 | 46 | 1007.5 |
| 20260904175405 | 23 | 121 | 1.6 | 4.8 | 0.00 | 0.03 | 0.03 | 49 | 1007.8 |
| 20260904174405 | 23 | 194 | 1.6 | 4.8 | 0.00 | 0.03 | 0.03 | 49 | 1007.8 |
| 20260904173404 | 23 | 243 | 1.6 | 4.8 | 0.00 | 0.03 | 0.03 | 49 | 1007.6 |
| 20260904172905 | 23 | 248 | 1.6 | 4.8 | 0.00 | 0.03 | 0.03 | 49 | 1007.6 |
| 20260904172405 | 23 | 233 | 1.6 | 4.8 | 0.00 | 0.03 | 0.03 | 50 | 1007.6 |
| 20260904171405 | 23 | 173 | 1.6 | 4.8 | 0.00 | 0.03 | 0.03 | 50 | 1007.5 |
| 20260904170405 | 23 | 218 | 1.6 | 4.8 | 0.00 | 0.03 | 0.03 | 49 | 1007.4 |
| 20260904164904 | 23 | 40 | 1.6 | 4.8 | 0.00 | 0.03 | 0.03 | 51 | 1007.3 |
| 20260904163905 | 23 | 19 | 1.6 | 3.2 | 0.00 | 0.03 | 0.03 | 52 | 1007.4 |
| 20260904163406 | 23 | 309 | 1.6 | 4.8 | 0.00 | 0.03 | 0.03 | 52 | 1007.4 |
| 20260904162905 | 22 | 27 | 1.6 | 4.8 | 0.00 | 0.03 | 0.03 | 52 | 1007.5 |
| 20260904162405 | 22 | 334 | 1.6 | 3.2 | 0.00 | 0.03 | 0.03 | 52 | 1007.4 |
| 20260904161404 | 22 | 107 | 1.6 | 4.8 | 0.00 | 0.03 | 0.03 | 56 | 1007.4 |
| 20260904160404 | 21 | 195 | 1.6 | 4.8 | 0.00 | 0.03 | 0.03 | 57 | 1007.5 |
| 20260904154405 | 19 | 142 | 1.6 | 8.0 | 0.00 | 0.03 | 0.03 | 70 | 1007.5 |
| 20260904152905 | 18 | 135 | 0.0 | 0.0 | 0.00 | 0.03 | 0.03 | 76 | 1007.4 |
| 20260904152405 | 18 | 135 | 0.0 | 0.0 | 0.00 | 0.03 | 0.03 | 75 | 1007.4 |
| 20260904150904 | 18 | 135 | 0.0 | 0.0 | 0.00 | 0.03 | 0.03 | 76 | 1007.3 |
| 20260904150405 | 18 | 135 | 0.0 | 1.6 | 0.00 | 0.03 | 0.03 | 74 | 1007.3 |
| 20260904145405 | 18 | 135 | 0.0 | 3.2 | 0.00 | 0.03 | 0.03 | 73 | 1007.3 |
| 20260904143905 | 18 | 134 | 1.6 | 4.8 | 0.00 | 0.03 | 0.03 | 74 | 1007.1 |
| 20260904142905 | 17 | 142 | 0.0 | 3.2 | 0.00 | 0.03 | 0.03 | 76 | 1007.1 |
| 20260904140905 | 17 | 140 | 0.0 | 4.8 | 0.00 | 0.03 | 0.03 | 76 | 1007.1 |
| 20260904140405 | 17 | 140 | 0.0 | 4.8 | 0.00 | 0.03 | 0.03 | 75 | 1007.2 |
| 20260904133405 | 17 | 154 | 3.2 | 4.8 | 0.00 | 0.03 | 0.03 | 76 | 1006.8 |
| 20260904132905 | 17 | 138 | 1.6 | 8.0 | 0.00 | 0.03 | 0.03 | 75 | 1006.8 |
| 20260904132405 | 17 | 147 | 1.6 | 8.0 | 0.00 | 0.03 | 0.03 | 76 | 1006.7 |
| 20260904130905 | 17 | 132 | 1.6 | 4.8 | 0.00 | 0.03 | 0.03 | 76 | 1006.6 |
| 20260904125905 | 17 | 150 | 3.2 | 4.8 | 0.00 | 0.03 | 0.03 | 76 | 1006.5 |
| 20260904125405 | 17 | 143 | 1.6 | 4.8 | 0.00 | 0.03 | 0.03 | 77 | 1006.4 |
| 20260904124905 | 17 | 143 | 0.0 | 3.2 | 0.00 | 0.03 | 0.03 | 76 | 1006.3 |
| 20260904120905 | 17 | 147 | 1.6 | 4.8 | 0.03 | 0.03 | 0.03 | 78 | 1006.1 |
| 20260904120405 | 17 | 145 | 1.6 | 4.8 | 0.03 | 0.03 | 0.03 | 78 | 1006.1 |
| 20260904115405 | 17 | 59 | 3.2 | 8.0 | 0.03 | 0.03 | 0.03 | 77 | 1005.9 |
| 20260904114405 | 17 | 70 | 1.6 | 8.0 | 0.03 | 0.03 | 0.03 | 76 | 1006.0 |
| 20260904113405 | 17 | 147 | 3.2 | 8.0 | 0.00 | 0.00 | 0.00 | 74 | 1005.9 |
| 20260904112405 | 18 | 135 | 1.6 | 9.7 | 0.00 | 0.00 | 0.00 | 72 | 1005.8 |
| 20260904111904 | 18 | 142 | 1.6 | 9.7 | 0.00 | 0.00 | 0.00 | 71 | 1005.8 |
| 20260904111404 | 18 | 144 | 3.2 | 11.3 | 0.00 | 0.00 | 0.00 | 70 | 1005.8 |
| 20260904104405 | 18 | 135 | 1.6 | 4.8 | 0.00 | 0.00 | 0.00 | 71 | 1005.5 |
| 20260904103405 | 18 | 132 | 1.6 | 4.8 | 0.00 | 0.00 | 0.00 | 72 | 1005.5 |
| 20260904101905 | 18 | 132 | 0.0 | 4.8 | 0.00 | 0.00 | 0.00 | 70 | 1005.6 |
| 20260904100905 | 18 | 135 | 1.6 | 8.0 | 0.00 | 0.00 | 0.00 | 71 | 1005.6 |
| 20260904093905 | 18 | 51 | 4.8 | 8.0 | 0.00 | 0.00 | 0.00 | 74 | 1005.7 |
| 20260904093405 | 18 | 36 | 3.2 | 4.8 | 0.00 | 0.00 | 0.00 | 73 | 1006.0 |
| 20260904091905 | 18 | 130 | 3.2 | 11.3 | 0.00 | 0.00 | 0.00 | 69 | 1006.1 |
| 20260904091405 | 17 | 137 | 4.8 | 8.0 | 0.00 | 0.00 | 0.00 | 68 | 1006.1 |
| 20260904090905 | 17 | 166 | 3.2 | 4.8 | 0.00 | 0.00 | 0.00 | 69 | 1005.9 |
| 20260904085405 | 17 | 166 | 1.6 | 4.8 | 0.00 | 0.00 | 0.00 | 69 | 1005.9 |
| 20260904084405 | 17 | 166 | 0.0 | 0.0 | 0.00 | 0.00 | 0.00 | 67 | 1005.8 |
| 20260904083905 | 17 | 166 | 0.0 | 0.0 | 0.00 | 0.00 | 0.00 | 66 | 1005.8 |
| 20260904083405 | 17 | 166 | 0.0 | 1.6 | 0.00 | 0.00 | 0.00 | 67 | 1005.8 |
| 20260904080904 | 17 | 166 | 0.0 | 0.0 | 0.00 | 0.00 | 0.00 | 68 | 1005.9 |
| 20260904075905 | 17 | 166 | 0.0 | 0.0 | 0.00 | 0.00 | 0.00 | 68 | 1005.9 |
| 20260904074905 | 17 | 166 | 0.0 | 0.0 | 0.00 | 0.00 | 0.00 | 67 | 1006.0 |
| 20260904074405 | 17 | 166 | 0.0 | 1.6 | 0.00 | 0.00 | 0.00 | 67 | 1006.0 |
| 20260904073905 | 17 | 166 | 0.0 | 1.6 | 0.00 | 0.00 | 0.00 | 67 | 1006.0 |
| 20260904073404 | 17 | 166 | 0.0 | 4.8 | 0.00 | 0.00 | 0.00 | 67 | 1006.1 |
| 20260904072905 | 17 | 166 | 1.6 | 4.8 | 0.00 | 0.00 | 0.00 | 68 | 1006.1 |
| 20260904072404 | 17 | 166 | 0.0 | 0.0 | 0.00 | 0.00 | 0.00 | 67 | 1006.1 |
| 20260904071905 | 17 | 166 | 0.0 | 0.0 | 0.00 | 0.00 | 0.00 | 67 | 1006.1 |
| 20260904071405 | 17 | 166 | 0.0 | 0.0 | 0.00 | 0.00 | 0.00 | 67 | 1006.2 |
| 20260904070405 | 17 | 166 | 0.0 | 0.0 | 0.00 | 0.00 | 0.00 | 65 | 1006.2 |
| 20260904065906 | 17 | 166 | 0.0 | 4.8 | 0.00 | 0.00 | 0.00 | 64 | 1006.3 |
| 20260904065405 | 17 | 166 | 0.0 | 4.8 | 0.00 | 0.00 | 0.00 | 64 | 1006.3 |
| 20260904064905 | 17 | 166 | 1.6 | 4.8 | 0.00 | 0.00 | 0.00 | 63 | 1006.2 |
| 20260904064405 | 17 | 171 | 0.0 | 0.0 | 0.00 | 0.00 | 0.00 | 64 | 1006.2 |
| 20260904063405 | 18 | 171 | 0.0 | 0.0 | 0.00 | 0.00 | 0.00 | 63 | 1006.1 |
| 20260904062905 | 18 | 171 | 0.0 | 0.0 | 0.00 | 0.00 | 0.00 | 63 | 1006.2 |
| 20260904062405 | 18 | 171 | 0.0 | 0.0 | 0.00 | 0.00 | 0.00 | 63 | 1006.1 |
| 20260904061905 | 18 | 171 | 0.0 | 0.0 | 0.00 | 0.00 | 0.00 | 64 | 1006.2 |
| 20260904060905 | 18 | 171 | 0.0 | 1.6 | 0.00 | 0.00 | 0.00 | 64 | 1006.3 |
| 20260904060405 | 18 | 171 | 0.0 | 1.6 | 0.00 | 0.00 | 0.00 | 63 | 1006.2 |
| 20260904054905 | 18 | 171 | 0.0 | 0.0 | 0.00 | 0.00 | 0.00 | 62 | 1006.3 |
| 20260904054405 | 18 | 171 | 0.0 | 0.0 | 0.00 | 0.00 | 0.00 | 61 | 1006.4 |
| 20260904051404 | 18 | 171 | 0.0 | 0.0 | 0.00 | 0.00 | 0.00 | 57 | 1006.5 |
| 20260904050405 | 18 | 171 | 0.0 | 1.6 | 0.00 | 0.00 | 0.00 | 58 | 1006.5 |
| 20260904045905 | 18 | 146 | 0.0 | 4.8 | 0.00 | 0.00 | 0.00 | 57 | 1006.5 |
| 20260904045405 | 18 | 146 | 0.0 | 4.8 | 0.00 | 0.00 | 0.00 | 57 | 1006.5 |
| 20260904044905 | 18 | 144 | 1.6 | 4.8 | 0.00 | 0.00 | 0.00 | 57 | 1006.4 |
| 20260904044405 | 18 | 142 | 3.2 | 4.8 | 0.00 | 0.00 | 0.00 | 58 | 1006.5 |
| 20260904043404 | 18 | 124 | 0.0 | 3.2 | 0.00 | 0.00 | 0.00 | 60 | 1006.5 |
| 20260904040905 | 18 | 67 | 0.0 | 3.2 | 0.00 | 0.00 | 0.00 | 57 | 1006.6 |
| 20260904040404 | 18 | 109 | 0.0 | 3.2 | 0.00 | 0.00 | 0.00 | 58 | 1006.7 |
| 20260904034405 | 19 | 110 | 0.0 | 3.2 | 0.00 | 0.00 | 0.00 | 58 | 1006.9 |
| 20260904033905 | 20 | 46 | 0.0 | 1.6 | 0.00 | 0.00 | 0.00 | 56 | 1006.8 |
| 20260904033405 | 20 | 46 | 0.0 | 0.0 | 0.00 | 0.00 | 0.00 | 55 | 1006.8 |
| 20260904031905 | 21 | 46 | 0.0 | 0.0 | 0.00 | 0.00 | 0.00 | 51 | 1006.8 |
| 20260904031405 | 21 | 46 | 0.0 | 0.0 | 0.00 | 0.00 | 0.00 | 51 | 1006.8 |
| 20260904030905 | 21 | 46 | 0.0 | 0.0 | 0.00 | 0.00 | 0.00 | 50 | 1006.8 |
| 20260904030405 | 22 | 46 | 0.0 | 0.0 | 0.00 | 0.00 | 0.00 | 49 | 1006.7 |
| 20260904024904 | 22 | 46 | 0.0 | 4.8 | 0.00 | 0.00 | 0.00 | 46 | 1006.5 |
| 20260904022905 | 24 | 66 | 0.0 | 12.9 | 0.00 | 0.00 | 0.00 | 42 | 1006.1 |
| 20260904022405 | 24 | 30 | 4.8 | 12.9 | 0.00 | 0.00 | 0.00 | 40 | 1005.9 |
| 20260904014405 | 25 | 204 | 3.2 | 8.0 | 0.00 | 0.00 | 0.00 | 36 | 1005.2 |
| 20260904013905 | 25 | 236 | 1.6 | 8.0 | 0.00 | 0.00 | 0.00 | 35 | 1005.1 |
| 20260904013405 | 25 | 141 | 1.6 | 8.0 | 0.00 | 0.00 | 0.00 | 36 | 1005.0 |
| 20260904012905 | 25 | 141 | 0.0 | 9.7 | 0.00 | 0.00 | 0.00 | 35 | 1005.0 |
| 20260904011905 | 26 | 144 | 1.6 | 8.0 | 0.00 | 0.00 | 0.00 | 34 | 1005.0 |
| 20260904010405 | 26 | 207 | 1.6 | 8.0 | 0.00 | 0.00 | 0.00 | 34 | 1004.9 |
| 20260904005904 | 26 | 243 | 3.2 | 9.7 | 0.00 | 0.00 | 0.00 | 33 | 1004.9 |
| 20260904004405 | 26 | 206 | 1.6 | 8.0 | 0.00 | 0.00 | 0.00 | 33 | 1004.8 |
| 20260904002404 | 27 | 197 | 3.2 | 14.5 | 0.00 | 0.00 | 0.00 | 31 | 1004.7 |
| 20260904000405 | 28 | 202 | 4.8 | 12.9 | 0.00 | 0.00 | 0.00 | 31 | 1004.7 |
| 20260903234405 | 28 | 164 | 4.8 | 12.9 | 0.00 | 0.00 | 0.00 | 30 | 1004.6 |
| 20260903233905 | 28 | 162 | 3.2 | 16.1 | 0.00 | 0.00 | 0.00 | 30 | 1004.6 |
| 20260903232405 | 28 | 231 | 1.6 | 16.1 | 0.00 | 0.00 | 0.00 | 29 | 1004.6 |
| 20260903231904 | 28 | 225 | 4.8 | 16.1 | 0.00 | 0.00 | 0.00 | 29 | 1004.7 |
| 20260903225405 | 29 | 184 | 4.8 | 14.5 | 0.00 | 0.00 | 0.00 | 29 | 1004.7 |
| 20260903224405 | 29 | 202 | 4.8 | 14.5 | 0.00 | 0.00 | 0.00 | 29 | 1004.9 |
| 20260903223905 | 29 | 196 | 6.4 | 14.5 | 0.00 | 0.00 | 0.00 | 28 | 1004.9 |
| 20260903221404 | 30 | 258 | 8.0 | 14.5 | 0.00 | 0.00 | 0.00 | 28 | 1005.0 |
| 20260903220405 | 29 | 237 | 4.8 | 9.7 | 0.00 | 0.00 | 0.00 | 28 | 1005.1 |
| 20260903214404 | 28 | 242 | 3.2 | 12.9 | 0.00 | 0.00 | 0.00 | 29 | 1005.3 |
| 20260903213905 | 28 | 227 | 3.2 | 9.7 | 0.00 | 0.00 | 0.00 | 28 | 1005.5 |
| 20260903212904 | 29 | 226 | 1.6 | 9.7 | 0.00 | 0.00 | 0.00 | 29 | 1005.6 |
| 20260903211904 | 29 | 205 | 4.8 | 19.3 | 0.00 | 0.00 | 0.00 | 27 | 1005.6 |